EW4258 Weather Reports


time (UTC)temp
C
wind
direction
speed
KPH
gust
KPH
rain 1hr
cm
rain 24hr
cm
rain mn
cm
humidity
%
barometer
mb
20260506001112 7 112 0.0 3.2 0.00 0.00 0.00 51 1010.4
20260506000111 7 135 0.0 0.0 0.00 0.00 0.00 51 1010.6
20260505235111 7 67 1.6 3.2 0.00 0.00 0.00 50 1010.6
20260505234111 7 180 0.0 0.0 0.00 0.00 0.00 50 1010.8
20260505233112 8 292 1.6 0.0 0.00 0.00 0.00 50 1010.8
20260505232111 8 67 0.0 0.0 0.00 0.00 0.00 49 1010.4
20260505231111 8 67 0.0 0.0 0.00 0.00 0.00 50 1010.4
20260505225110 8 157 1.6 0.0 0.00 0.00 0.00 48 1010.2
20260505224110 9 90 0.0 0.0 0.00 0.00 0.00 48 1010.2
20260505223110 9 135 0.0 0.0 0.00 0.00 0.00 48 1010.2
20260505222110 9 225 0.0 0.0 0.00 0.00 0.00 48 1010.1
20260505221110 10 202 1.6 0.0 0.00 0.00 0.00 47 1010.1
20260505220114 10 157 0.0 0.0 0.00 0.00 0.00 46 1010.0
20260505214114 10 90 0.0 0.0 0.00 0.00 0.00 46 1010.0
20260505212113 11 202 0.0 0.0 0.00 0.00 0.00 45 1009.9
20260505211113 11 292 1.6 0.0 0.00 0.00 0.00 44 1009.9
20260505210114 11 202 0.0 0.0 0.00 0.00 0.00 43 1009.5
20260505204113 12 67 1.6 0.0 0.00 0.00 0.00 42 1009.3
20260505203115 12 157 0.0 1.6 0.00 0.00 0.00 42 1009.3
20260505202113 12 90 0.0 0.0 0.00 0.00 0.00 42 1009.1
20260505201113 13 202 0.0 0.0 0.00 0.00 0.00 41 1009.1
20260505200113 13 315 0.0 0.0 0.00 0.00 0.00 40 1008.7
20260505195113 13 157 0.0 0.0 0.00 0.00 0.00 39 1008.7
20260505194113 14 90 1.6 1.6 0.00 0.00 0.00 38 1008.4
20260505193113 15 90 0.0 0.0 0.00 0.00 0.00 38 1008.4
20260505192113 15 202 0.0 0.0 0.00 0.00 0.00 37 1008.2
20260505190113 16 202 0.0 0.0 0.00 0.00 0.00 35 1008.0
20260505185112 16 247 1.6 0.0 0.00 0.00 0.00 34 1008.0
20260505183113 17 90 3.2 4.8 0.00 0.00 0.00 32 1007.8
20260505182112 18 135 3.2 4.8 0.00 0.00 0.00 32 1007.8
20260505181113 18 112 3.2 3.2 0.00 0.00 0.00 32 1007.8
20260505180112 19 135 1.6 3.2 0.00 0.00 0.00 32 1007.6
20260505175112 19 247 3.2 3.2 0.00 0.00 0.00 32 1007.6
20260505173113 20 157 3.2 6.4 0.00 0.00 0.00 32 1007.6
20260505172113 20 157 4.8 3.2 0.00 0.00 0.00 33 1007.6
20260505171112 20 247 1.6 4.8 0.00 0.00 0.00 33 1007.6
20260505170112 20 360 3.2 0.0 0.00 0.00 0.00 32 1007.6
20260505165112 21 135 4.8 8.0 0.00 0.00 0.00 32 1007.6
20260505164112 21 67 4.8 8.0 0.00 0.00 0.00 33 1008.2
20260505163112 21 112 4.8 6.4 0.00 0.00 0.00 32 1008.2
20260505162112 20 67 6.4 6.4 0.00 0.00 0.00 33 1008.2
20260505161113 20 90 4.8 6.4 0.00 0.00 0.00 33 1008.2
20260505160112 20 90 4.8 6.4 0.00 0.00 0.00 33 1008.3
20260505153113 20 90 4.8 3.2 0.00 0.00 0.00 33 1008.4
20260505152113 20 67 4.8 3.2 0.00 0.00 0.00 34 1008.6
20260505151113 20 135 3.2 6.4 0.00 0.00 0.00 33 1008.6
20260505150111 20 292 3.2 3.2 0.00 0.00 0.00 32 1008.1
20260505140111 22 180 4.8 9.7 0.00 0.00 0.00 31 1007.9
20260505130110 23 135 4.8 6.4 0.00 0.00 0.00 31 1008.1
20260505124110 22 225 4.8 3.2 0.00 0.00 0.00 31 1007.9
20260505123110 23 157 6.4 4.8 0.00 0.00 0.00 31 1007.9
20260505122112 23 225 6.4 4.8 0.00 0.00 0.00 31 1008.1
20260505121115 23 225 6.4 11.3 0.00 0.00 0.00 32 1008.1
20260505120115 23 157 4.8 4.8 0.00 0.00 0.00 31 1008.2
20260505115115 23 225 8.0 9.7 0.00 0.00 0.00 31 1008.2
20260505114115 23 225 6.4 6.4 0.00 0.00 0.00 31 1007.9
20260505113115 23 225 6.4 6.4 0.00 0.00 0.00 31 1007.9
20260505112116 23 225 1.6 8.0 0.00 0.00 0.00 29 1008.2
20260505111116 23 45 1.6 1.6 0.00 0.00 0.00 30 1008.2
20260505110114 23 225 3.2 0.0 0.00 0.00 0.00 30 1008.6
20260505102115 22 202 3.2 0.0 0.00 0.00 0.00 32 1008.9
20260505101114 21 112 3.2 11.3 0.00 0.00 0.00 33 1008.9
20260505095114 21 135 4.8 6.4 0.00 0.00 0.00 35 1009.1
20260505094114 21 112 3.2 6.4 0.00 0.00 0.00 35 1009.3
20260505093114 21 225 3.2 3.2 0.00 0.00 0.00 39 1009.3
20260505091113 20 292 1.6 3.2 0.00 0.00 0.00 39 1009.6
20260505090113 20 225 1.6 6.4 0.00 0.00 0.00 40 1009.9
20260505085113 18 225 0.0 1.6 0.00 0.00 0.00 39 1009.9
20260505084113 18 157 1.6 1.6 0.00 0.00 0.00 39 1010.0
20260505083113 18 112 0.0 1.6 0.00 0.00 0.00 40 1010.0
20260505082113 17 45 0.0 1.6 0.00 0.00 0.00 40 1010.2
20260505081113 17 225 0.0 0.0 0.00 0.00 0.00 41 1010.2
20260505080113 17 225 1.6 3.2 0.00 0.00 0.00 42 1010.2
20260505075113 16 225 1.6 4.8 0.00 0.00 0.00 41 1010.2
20260505074113 16 225 0.0 1.6 0.00 0.00 0.00 41 1010.6
20260505073113 16 135 0.0 0.0 0.00 0.00 0.00 42 1010.6
20260505071113 15 67 0.0 0.0 0.00 0.00 0.00 42 1010.9
20260505070114 15 45 1.6 3.2 0.00 0.00 0.00 42 1011.1
20260505064112 15 157 0.0 0.0 0.00 0.00 0.00 45 1011.3
20260505063112 14 135 1.6 3.2 0.00 0.00 0.00 45 1011.3
20260505061112 12 247 0.0 3.2 0.00 0.00 0.00 46 1011.4
20260505060112 12 337 1.6 1.6 0.00 0.00 0.00 47 1011.2
20260505055112 11 67 0.0 3.2 0.00 0.00 0.00 48 1011.2
20260505054112 10 292 0.0 0.0 0.00 0.00 0.00 49 1011.5
20260505052112 8 180 3.2 0.0 0.00 0.00 0.00 52 1011.5
20260505051111 6 45 0.0 1.6 0.00 0.00 0.00 52 1011.5
20260505050111 6 157 1.6 0.0 0.00 0.00 0.00 51 1011.8
20260505041111 6 90 0.0 0.0 0.00 0.00 0.00 50 1011.4
20260505040111 6 202 0.0 0.0 0.00 0.00 0.00 50 1011.5
20260505035112 7 135 0.0 0.0 0.00 0.00 0.00 50 1011.5
20260505034113 7 90 1.6 1.6 0.00 0.00 0.00 50 1011.6
20260505033113 7 135 0.0 0.0 0.00 0.00 0.00 50 1011.6
20260505032113 7 45 0.0 0.0 0.00 0.00 0.00 49 1011.8
20260505030112 7 157 0.0 0.0 0.00 0.00 0.00 48 1011.8
20260505024112 8 180 0.0 0.0 0.00 0.00 0.00 48 1011.9
20260505023112 8 67 0.0 3.2 0.00 0.00 0.00 48 1011.9
20260505021113 8 180 0.0 0.0 0.00 0.00 0.00 48 1011.9
20260505020112 8 202 0.0 0.0 0.00 0.00 0.00 47 1011.9
20260505015112 9 67 0.0 0.0 0.00 0.00 0.00 46 1011.9
20260505014112 9 157 1.6 0.0 0.00 0.00 0.00 47 1012.0
20260505013112 9 112 1.6 1.6 0.00 0.00 0.00 46 1012.0
20260505012112 10 67 0.0 1.6 0.00 0.00 0.00 46 1012.1
20260505011112 10 112 1.6 0.0 0.00 0.00 0.00 45 1012.1
20260505010112 10 135 0.0 0.0 0.00 0.00 0.00 45 1012.2
20260505005112 10 157 0.0 0.0 0.00 0.00 0.00 45 1012.2
20260505003111 10 90 0.0 0.0 0.00 0.00 0.00 44 1012.2
20260505002111 11 202 0.0 0.0 0.00 0.00 0.00 43 1012.3